Simultaneous Nadir Overpasses (SNOs) Predictions

Prediction of SNOs between GOES-14 and AQUA Satellite Orbit:

Table of predicted SNOs for the next 14.0 days since TLE Epoch: 5/25/2024
Index Date Time (GOES-14) GOES-14 Lat,Lon AQUA Lat,Lon Distance(km) Time Diff (sec)
1 05/26/2024 09:18:36 0.04,-108.62 -0.26,-107.12 170.49 80
2 05/26/2024 21:36:15 -0.01,-108.60 -0.73,-112.04 391.66 80
3 05/28/2024 21:22:26 -0.02,-108.58 0.08,-108.01 65.25 80
4 05/29/2024 09:39:55 0.00,-108.61 0.95,-112.88 487.00 80
5 05/31/2024 09:23:26 0.01,-108.60 0.07,-108.86 29.59 80
6 06/02/2024 09:09:36 0.02,-108.58 -0.81,-104.82 428.22 80
7 06/02/2024 21:27:13 0.00,-108.55 -0.25,-109.73 134.29 80
8 06/04/2024 21:13:22 0.00,-108.54 0.63,-105.69 323.87 80
9 06/05/2024 09:30:49 -0.03,-108.57 0.41,-110.57 227.42 80
10 06/07/2024 09:16:57 -0.02,-108.55 -0.48,-106.53 230.74 80
11 06/07/2024 21:34:33 0.05,-108.51 -0.60,-111.43 332.71 80
